Weather History for KCFE - August, 2012

Change the Weather History Date:

Thursday, August 16, 2012

  Actual Average (KSTC) Record (KSTC)
Temperature  
Mean Temperature 61 °F 68 °F  
Max Temperature 68 °F 80 °F 100 °F (1950)
Min Temperature 54 °F 56 °F 42 °F (1992)
Degree Days  
Heating Degree Days 4 1  
Month to date heating degree days 16  
Since 1 June heating degree days 111  
Since 1 July heating degree days 33  
Cooling Degree Days 0 4  
Month to date cooling degree days 77  
Year to date cooling degree days 379  
Since 1 June cooling degree days 354  
Growing Degree Days 11 (Base 50)    
Moisture  
Dew Point 51 °F    
Average Humidity 67    
Maximum Humidity 84    
Minimum Humidity 46    
Precipitation  
Precipitation 0.03 in 0.12 in 2.07 in (1983)
Month to date precipitation 1.86  
Year to date precipitation 17.65  
Snow  
Snow 0.00 in 0.00 in 0.00 in ()
Month to date snowfall 0.0  
Since 1 June snowfall 0.0  
Since 1 July snowfall 0.0  
Snow Depth -    
Sea Level Pressure  
Sea Level Pressure 29.94 in    
Wind  
Wind Speed 11 mph (WNW)    
Max Wind Speed 16 mph    
Max Gust Speed 25 mph    
Visibility 10 miles    
Events Rain    
T = Trace of Precipitation, MM = Missing Value Source: NWS Daily Summary

Daily Weather History Graph

Daily Weather History Graph

Search for Another Location

Airport or City:

Trip Planner

Search our weather history database for the weather conditions in past years. The results will help you decide how hot, cold, wet, or windy it might be!

Date:

Astronomy

Aug. 16, 2012 Rise Set
Actual Time 6:18 AM CDT 8:19 PM CDT
Civil Twilight 5:46 AM CDT 8:51 PM CDT
Nautical Twilight 5:07 AM CDT 9:30 PM CDT
Astronomical Twilight 4:24 AM CDT 10:13 PM CDT
Moon 5:17 AM CDT (8/16) 7:27 PM CDT (8/16)
Length of Visible Light 15h 04m
Length of Day
14h 01m
Waning Crescent, 1% of the Moon is Illuminated
Aug 16
Waning Crescent
Aug 17
New
Aug 24
First Quarter
Aug 31
Full
Sep 8
Last Quarter

Hourly Weather History & Observations

Time (CDT) Temp. Dew Point Humidity Pressure Visibility Wind Dir Wind Speed Gust Speed Precip Events Conditions
12:13 AM 68.4 °F 62.2 °F 81% 29.81 in 10.0 mi WNW 6.9 mph - N/A Rain Light Rain
12:34 AM 68.0 °F 62.1 °F 81% 29.82 in 10.0 mi WNW 9.2 mph 17.3 mph N/A   Overcast
12:53 AM 67.3 °F 60.8 °F 80% 29.83 in 10.0 mi WNW 12.7 mph 17.3 mph N/A   Overcast
1:13 AM 66.4 °F 59.9 °F 80% 29.82 in 10.0 mi NW 8.1 mph 11.5 mph N/A   Mostly Cloudy
1:33 AM 66.2 °F 59.9 °F 80% 29.82 in 10.0 mi WNW 12.7 mph 16.1 mph N/A   Mostly Cloudy
1:53 AM 65.5 °F 59.0 °F 80% 29.83 in 10.0 mi WNW 11.5 mph 17.3 mph N/A   Mostly Cloudy
2:13 AM 63.9 °F 57.2 °F 79% 29.83 in 10.0 mi NW 13.8 mph 21.9 mph N/A   Scattered Clouds
2:33 AM 63.3 °F 57.4 °F 81% 29.84 in 10.0 mi WNW 10.4 mph 16.1 mph N/A   Mostly Cloudy
2:54 AM 62.8 °F 56.5 °F 80% 29.84 in 10.0 mi NW 12.7 mph 20.7 mph N/A   Overcast
3:13 AM 62.1 °F 56.3 °F 81% 29.84 in 10.0 mi NW 10.4 mph 17.3 mph N/A   Overcast
3:33 AM 62.1 °F 56.3 °F 81% 29.85 in 10.0 mi WNW 12.7 mph 16.1 mph N/A   Mostly Cloudy
3:54 AM 62.1 °F 55.9 °F 80% 29.85 in 10.0 mi NW 9.2 mph - N/A   Mostly Cloudy
4:13 AM 62.1 °F 55.6 °F 79% 29.86 in 10.0 mi WNW 8.1 mph - N/A   Overcast
4:34 AM 60.4 °F 54.1 °F 80% 29.86 in 10.0 mi NW 10.4 mph 19.6 mph N/A   Mostly Cloudy
4:53 AM 60.3 °F 54.0 °F 80% 29.87 in 10.0 mi NW 13.8 mph 19.6 mph N/A   Mostly Cloudy
5:13 AM 58.8 °F 52.3 °F 79% 29.87 in 10.0 mi WNW 11.5 mph 21.9 mph N/A   Scattered Clouds
5:34 AM 58.1 °F 52.3 °F 81% 29.88 in 10.0 mi WNW 6.9 mph - N/A   Clear
5:53 AM 57.7 °F 52.3 °F 82% 29.89 in 10.0 mi West 6.9 mph - N/A   Clear
6:13 AM 57.4 °F 52.7 °F 84% 29.89 in 10.0 mi West 5.8 mph - N/A   Clear
6:34 AM 57.4 °F 52.3 °F 83% 29.90 in 10.0 mi WNW 11.5 mph 17.3 mph N/A   Scattered Clouds
6:53 AM 58.1 °F 52.7 °F 82% 29.91 in 10.0 mi West 10.4 mph 19.6 mph N/A   Scattered Clouds
7:34 AM 59.4 °F 52.7 °F 79% 29.91 in 10.0 mi WNW 15.0 mph 19.6 mph N/A   Scattered Clouds
7:53 AM 59.7 °F 52.7 °F 78% 29.91 in 10.0 mi WNW 11.5 mph 19.6 mph N/A   Mostly Cloudy
8:13 AM 60.4 °F 53.1 °F 77% 29.91 in 10.0 mi West 13.8 mph 19.6 mph N/A   Scattered Clouds
8:34 AM 60.3 °F 53.6 °F 79% 29.92 in 10.0 mi West 12.7 mph 20.7 mph N/A   Overcast
8:53 AM 60.3 °F 53.4 °F 78% 29.92 in 10.0 mi WNW 12.7 mph 20.7 mph N/A   Overcast
9:13 AM 60.3 °F 53.1 °F 77% 29.94 in 10.0 mi West 13.8 mph 18.4 mph N/A   Overcast
9:34 AM 59.9 °F 52.7 °F 77% 29.94 in 10.0 mi WNW 12.7 mph 23.0 mph N/A   Overcast
9:53 AM 62.1 °F 53.2 °F 73% 29.94 in 10.0 mi WNW 15.0 mph 20.7 mph N/A   Mostly Cloudy
10:13 AM 62.1 °F 52.5 °F 71% 29.95 in 10.0 mi West 15.0 mph 18.4 mph N/A   Mostly Cloudy
10:34 AM 62.6 °F 51.8 °F 68% 29.96 in 10.0 mi WNW 16.1 mph 21.9 mph N/A   Overcast
10:53 AM 63.5 °F 51.6 °F 65% 29.96 in 10.0 mi NW 15.0 mph 24.2 mph N/A   Overcast
11:33 AM 64.4 °F 51.4 °F 63% 29.97 in 10.0 mi WNW 15.0 mph 20.7 mph N/A   Mostly Cloudy
11:53 AM 65.5 °F 50.5 °F 58% 29.97 in 10.0 mi WNW 16.1 mph 21.9 mph N/A   Mostly Cloudy
12:14 PM 65.5 °F 50.9 °F 59% 29.97 in 10.0 mi WNW 13.8 mph 24.2 mph N/A   Overcast
12:33 PM 65.7 °F 51.1 °F 59% 29.97 in 10.0 mi WNW 11.5 mph 18.4 mph N/A   Overcast
12:53 PM 65.3 °F 50.7 °F 59% 29.97 in 10.0 mi WNW 15.0 mph 19.6 mph N/A   Overcast
1:14 PM 66.2 °F 50.0 °F 56% 29.97 in 10.0 mi NW 16.1 mph 19.6 mph N/A   Overcast
1:33 PM 66.2 °F 49.3 °F 54% 29.97 in 10.0 mi WNW 11.5 mph 24.2 mph N/A   Overcast
1:53 PM 67.3 °F 49.5 °F 53% 29.97 in 10.0 mi NW 12.7 mph 21.9 mph N/A   Overcast
2:14 PM - - N/A% - - North - - N/A   Unknown
2:33 PM 66.0 °F 48.7 °F 54% 29.98 in 10.0 mi NW 12.7 mph 23.0 mph 0.03 in   Overcast
2:53 PM 66.9 °F 48.4 °F 51% 29.98 in 10.0 mi NW 12.7 mph 19.6 mph 0.03 in   Overcast
3:13 PM 66.7 °F 47.5 °F 50% 29.98 in 10.0 mi WNW 15.0 mph 20.7 mph N/A   Mostly Cloudy
3:34 PM 68.9 °F 47.1 °F 46% 29.98 in 10.0 mi West 16.1 mph 25.3 mph N/A   Mostly Cloudy
3:53 PM 68.5 °F 46.9 °F 46% 29.98 in 10.0 mi NW 15.0 mph 24.2 mph N/A   Mostly Cloudy
4:13 PM 68.2 °F 47.7 °F 48% 29.97 in 10.0 mi WNW 15.0 mph 20.7 mph N/A   Mostly Cloudy
4:34 PM 67.6 °F 47.8 °F 49% 29.98 in 10.0 mi WNW 13.8 mph 17.3 mph N/A   Scattered Clouds
4:53 PM 67.3 °F 47.5 °F 49% 29.98 in 10.0 mi WNW 13.8 mph 23.0 mph N/A   Scattered Clouds
5:13 PM 68.9 °F 48.2 °F 48% 29.98 in 10.0 mi NW 11.5 mph 16.1 mph N/A   Scattered Clouds
5:34 PM 68.9 °F 47.8 °F 47% 29.98 in 10.0 mi WNW 13.8 mph 20.7 mph N/A   Mostly Cloudy
5:53 PM 67.3 °F 47.8 °F 50% 29.98 in 10.0 mi NW 13.8 mph 20.7 mph N/A   Scattered Clouds
6:13 PM 67.5 °F 47.7 °F 49% 29.98 in 10.0 mi NW 11.5 mph 17.3 mph N/A   Clear
6:34 PM 66.4 °F 47.5 °F 51% 29.98 in 10.0 mi WNW 10.4 mph - N/A   Clear
6:53 PM 66.6 °F 47.5 °F 50% 29.99 in 10.0 mi NW 8.1 mph - N/A   Clear
7:13 PM 66.2 °F 47.1 °F 50% 29.99 in 10.0 mi NW 8.1 mph - N/A   Clear
7:34 PM 65.5 °F 46.8 °F 51% 29.99 in 10.0 mi WNW 5.8 mph - N/A   Clear
7:53 PM 64.4 °F 46.4 °F 52% 30.00 in 10.0 mi NW 8.1 mph - N/A   Clear
8:13 PM 63.0 °F 46.4 °F 55% 30.00 in 10.0 mi WNW 3.5 mph - N/A   Clear
8:34 PM 62.2 °F 46.4 °F 56% 30.01 in 10.0 mi NW 3.5 mph - N/A   Clear
8:53 PM 62.1 °F 45.3 °F 54% 30.01 in 10.0 mi WNW 6.9 mph - N/A   Clear
9:13 PM 61.5 °F 45.7 °F 56% 30.02 in 10.0 mi West 5.8 mph - N/A   Clear
9:34 PM 60.4 °F 45.5 °F 58% 30.03 in 10.0 mi West 4.6 mph - N/A   Clear
9:53 PM 58.6 °F 45.9 °F 63% 30.03 in 10.0 mi West 4.6 mph - N/A   Clear
10:13 PM 57.6 °F 47.1 °F 68% 30.04 in 10.0 mi West 4.6 mph - N/A   Clear
10:34 PM 57.2 °F 47.3 °F 69% 30.04 in 10.0 mi West 4.6 mph - N/A   Clear
10:53 PM 56.3 °F 47.7 °F 73% 30.04 in 10.0 mi West 4.6 mph - N/A   Clear
11:13 PM 54.9 °F 47.3 °F 76% 30.04 in 10.0 mi Calm Calm - N/A   Clear
11:33 PM 54.0 °F 47.8 °F 80% 30.05 in 10.0 mi Calm Calm - N/A   Clear
11:54 PM 54.9 °F 46.8 °F 74% 30.04 in 10.0 mi West 3.5 mph - N/A   Clear